Regional Weather Roundup
Issued by NWS

Home | Current Version | Previous Version | Text Only | Print | Product List | Glossary On
Versions: 1 2 3 4 5 6 7 8 9 10 11 12 13 14 15 16 17 18 19 20 21 22 23 24 25 26 27 28 29 30 31 32 33 34 35 36 37 38 39 40 41 42 43 44 45 46 47 48 49 50
000
ASUS43 KMPX 240610
RWRMN
WEATHER ROUNDUP FOR MINNESOTA
NATIONAL WEATHER SERVICE TWIN CITIES/CHANHASSEN MN
1200 AM CST TUE JAN 24 2017


NOTE: "FAIR" INDICATES FEW OR NO CLOUDS BELOW 12,000 FEET WITH NO
SIGNIFICANT WEATHER AND/OR OBSTRUCTIONS TO VISIBILITY. N/A MEANS
CURRENT SKY AND/OR WEATHER CONDITIONS ARE NOT AVAILABLE.

MNZ060>063-068>070-240700-
   Twin Cities Metro

CITY           SKY/WX    TMP DP  RH WIND       PRES   REMARKS
TWIN CITIES    CLOUDY    33  27  78 NW3       29.86R
6HR MIN TEMP:  33; 6HR MAX TEMP:  34;

ST PAUL        CLOUDY    33  30  88 NW5       29.87R WCI  29
CRYSTAL        CLOUDY    32  26  78 W5        29.84S WCI  27
BLAINE         CLOUDY    34  30  86 CALM      29.85R
LAKEVILLE        N/A     30  28  93 CALM      29.85S
EDEN PRAIRIE   CLOUDY    33  27  78 CALM      29.84S
6HR MIN TEMP:  33; 6HR MAX TEMP:  34;

SOUTH ST PAUL  CLOUDY    33  31  91 CALM      29.86R
LAKE ELMO      CLOUDY    32  32 100 CALM      29.86S FOG
$$
MNZ001>005-007-008-013>017-022>024-027-028-240700-
   Northwest Minnesota

CITY           SKY/WX    TMP DP  RH WIND       PRES   REMARKS
BEMIDJI        CLOUDY    28  23  82 SW8       29.81S WCI  19
HALLOCK        CLOUDY    27  25  93 SW12      29.81R WCI  16
ROSEAU         CLOUDY    27  21  80 SW9       29.80R WCI  17
WARROAD        CLOUDY    28  23  80 SW10      29.80R WCI  19
THIEF RVR FALL CLOUDY    25  21  85 W14       29.83S WCI  13
CROOKSTON      CLOUDY    27  23  86 NW7       29.85R WCI  19
FOSSTON        CLOUDY    27  23  86 W10       29.83R WCI  17
DETROIT LAKES  CLOUDY    30  27  86 CALM      29.84R
MOORHEAD       CLOUDY    30  25  80 W6        29.87R WCI  24
PARK RAPIDS    CLOUDY    30  23  75 W5        29.81R WCI  25
MAHNOMEN       CLOUDY    28  25  86 W6        29.83S WCI  22
$$
MNZ006-009>011-018-025>026-240700-
   North Central Minnesota

CITY           SKY/WX    TMP DP  RH WIND       PRES   REMARKS
BAUDETTE       CLOUDY    28  22  78 SW9       29.79S WCI  19
FLAG ISLAND    CLOUDY    27  23  86 SW7       29.78S WCI  19
INTL FALLS     CLOUDY    29  23  78 CALM      29.80S
6HR MIN TEMP:  29; 6HR MAX TEMP:  32;

WASKISH        CLOUDY    28  25  86 W8        29.81S WCI  20
BIG FORK       CLOUDY    30  27  86 CALM      29.80S
LONGVILLE      CLOUDY    30  27  86 CALM      29.81R
GRAND RAPIDS   CLOUDY    30  26  85 CALM      29.82S
CRANE LAKE     CLOUDY    30  28  93 CALM      29.82S
ORR            CLOUDY    30  27  86 CALM      29.78R
COOK           CLOUDY    30  28  93 CALM      29.81R
WALKER         CLOUDY    29  24  80 CALM      29.81S
$$
MNZ012-019>021-037-240700-
   Northeast Minnesota

CITY           SKY/WX    TMP DP  RH WIND       PRES   REMARKS
DULUTH         FLURRIES  32  31  96 CALM      29.79F
6HR MIN TEMP:  32; 6HR MAX TEMP:  34; 6HR PCP: TRACE;

ELY            LGT SNOW  30  30 100 CALM      29.79S
HIBBING        CLOUDY    30  27  88 CALM      29.79F
EVELETH        CLOUDY    32  28  83 W3        29.81S
DULUTH HARBOR  CLOUDY    34  32  93 CALM      29.83F
TWO HARBORS    CLOUDY    36  30  80 CALM      29.79S
SILVER BAY     CLOUDY    34  34 100 CALM      29.79R FOG
GRAND MARAIS     N/A     35  34  96 CALM      29.81S
G MARAIS ARPRT FOG       32  28  86 CALM      29.77S VSB 1/2
$$
MNZ029>031-032-039>041-046>048-054>057-064-240700-
   West Central Minnesota

CITY           SKY/WX    TMP DP  RH WIND       PRES   REMARKS
FERGUS FALLS   CLOUDY    30  30 100 NW5       29.88S WCI  25
WHEATON        CLOUDY    30  27  86 CALM      29.88R
MORRIS         CLOUDY    30  27  86 CALM      29.84S
ALEXANDRIA     CLOUDY    30  25  81 CALM      29.84R
ELBOW LAKE     CLOUDY    30  28  93 W5        29.85R FOG     WCI  25
WADENA         CLOUDY    28  25  86 W3        29.82S
GLENWOOD       CLOUDY    30  25  80 CALM      29.84S
APPLETON       CLOUDY    32  28  86 CALM      29.85S
ORTONVILLE     CLOUDY    30  27  86 CALM      29.85R
MADISON        CLOUDY    34  30  86 S5        29.85R WCI  30
WILLMAR        CLOUDY    32  28  86 CALM      29.86S
$$
MNZ033>034-036-042>043-049>051-058-059-240700-
   Central Minnesota

CITY           SKY/WX    TMP DP  RH WIND       PRES   REMARKS
ST CLOUD       CLOUDY    31  26  82 W5        29.84S WCI  26
6HR MIN TEMP:  31; 6HR MAX TEMP:  32;

SAUK CENTRE    CLOUDY    30  26  85 W5        29.85R WCI  25
PAYNESVILLE    CLOUDY    31  30  96 CALM      29.85S
AITKIN         CLOUDY    34  27  75 CALM      29.81S
PINE RIVER     CLOUDY    30  27  86 CALM      29.86R
BRAINERD       CLOUDY    31  24  75 SW3       29.83R
STAPLES        CLOUDY    28  27  93 CALM      29.83R
LONG PRAIRIE   CLOUDY    30  27  86 CALM      29.85R
LITTLE FALLS   CLOUDY    32  27  80 CALM      29.85R
LITCHFIELD     CLOUDY    32  27  80 CALM      29.85S
BUFFALO        CLOUDY    32  27  81 CALM      29.86S
MAPLE LAKE     CLOUDY    32  28  86 CALM      29.86R
HUTCHINSON     CLOUDY    32  28  86 CALM      29.86R
$$
MNZ037-044-045-052-053-240700-
   East Central Minnesota

CITY           SKY/WX    TMP DP  RH WIND       PRES   REMARKS
PRINCETON      CLOUDY    34  27  75 CALM      29.85S
MORA           CLOUDY    32  28  86 NW3       29.85S
CAMBRIDGE      CLOUDY    34  30  86 CALM      29.83S
RUSH CITY      CLOUDY    32  28  86 CALM      29.84S
MOOSE LAKE     CLOUDY    32  30  93 CALM      29.81R
HINCKLEY       CLOUDY    32  32 100 CALM      29.83S
CLOQUET        CLOUDY    30  28  93 CALM      29.80S
MCGREGOR       CLOUDY    32  28  86 CALM      29.82S
$$
MNZ071>073-080-081-089-090-097-098-240700-
   Southwest Minnesota

CITY           SKY/WX    TMP DP  RH WIND       PRES   REMARKS
MONTEVIDEO     CLOUDY    30  30 100 CALM      29.87R
GRANITE FALLS  CLOUDY    33  29  85 CALM      29.87R
CANBY          CLOUDY    32  30  91 CALM      29.85S
MARSHALL       CLOUDY   N/A N/A N/A SE3       29.85R
REDWOOD FALLS  CLOUDY    33  26  75 CALM      29.85S
OLIVIA         CLOUDY    32  28  86 CALM      29.85R
PIPESTONE      CLOUDY    30  28  93 S7        29.80F WCI  23
WINDOM         CLOUDY    30  28  93 S5        29.84S WCI  25
WORTHINGTON    CLOUDY    30  29  96 SE7       29.82F WCI  23
JACKSON        CLOUDY    30  28  93 CALM      29.85R
TRACY          CLOUDY    32  29  90 SE5       29.84R WCI  27
SLAYTON        CLOUDY    29  28  94 SE8       29.83S WCI  21
$$
MNZ065>067-074>077-082>085-091>093-240700-
   South Central Minnesota

CITY           SKY/WX    TMP DP  RH WIND       PRES   REMARKS
MANKATO        CLOUDY    32  30  92 CALM      29.86S
NEW ULM        CLOUDY    30  27  86 CALM      29.86R
ST JAMES       CLOUDY    30  28  93 CALM      29.88R
FAIRMONT       CLOUDY    31  29  92 CALM      29.86S
GLENCOE        CLOUDY    33  30  90 CALM      29.85R
OWATONNA       CLOUDY    30  27  86 CALM      29.85S
WASECA         CLOUDY    32  28  86 W3        29.87S
ALBERT LEA     CLOUDY    30  28  93 CALM      29.85S
$$
MNZ078>079-086>088-094>096-240700-
   Southeast Minnesota

CITY           SKY/WX    TMP DP  RH WIND       PRES   REMARKS
ROCHESTER      CLOUDY    30  27  88 CALM      29.85R
6HR MIN TEMP:  30; 6HR MAX TEMP:  31;

RED WING       CLOUDY    34  28  80 CALM      29.85S
STANTON        CLOUDY    33  29  86 W3        29.84S
DODGE CENTER   CLOUDY    30  27  86 MISG      29.84S
WINONA         CLOUDY    34  32  93 CALM      29.87S
AUSTIN         CLOUDY    30  27  86 CALM      29.85S
PRESTON        CLOUDY    31  27  86 W5        29.85R WCI  26
$$
ABBREVIATIONS USED IN REMARKS
   TC - TEMPERATURES IN CELSIUS
  WCI - WIND CHILL INDEX
   HX - HEAT INDEX
  VSB - VISIBILITY
$$



USA.gov is the U.S. government's official web portal to all federal, state and local government web resources and services.